OIAI  Shahid Asyaee  Airport

Iran

Add Bookmark
ICAO OIAI
Type Airport
Status Operational
Latitude
32° 0' 8" N
32.002399
Longitude
49° 16' 13" E
49.270401
Local (GMT +4.5 ) UTC
Jul 27, 2016 08:11 am Jul 27, 2016 03:41
Sunrise-Sunset Local UTC
Begin Civil Twilight 05:57 am 01:27
Sunrise 06:24 am 01:54
Sunset 08:14 pm 15:44
End Civil Twilight 08:41 pm 16:11
VFR
VFR
MVFR
MVFR
IFR
IFR
LIFR
LIFR
Unknown
Unavailable

Current Weather

METAR Observed VFR
OIAI 141900Z 01002KT CAVOK 38/06 Q0998 Thu, Jul 14, 2016 @ 19:00 UTC
(1 Week, 5 Days, 8 Hours, 41 Minutes ago)
Visual Flight Rules
Wind Visibility Conditions
010° at 2 knots (4 kph) 10 km or more
  • No significant weather
Temperatures Readings Precipitation
Current Temp
38°C
100°F
Dewpoint
6°C
43°F
Humidity 14%
Altimeter 29.47" Hg
Sea Level Pressure 998 mb
Field Elevation
372 m
1,220 ft
None Recorded

Additional weather within a 92.6km radius of OIAI

Map ICAO Location
OIAW 88.2km S/SW (213°)
VFR
VFR
MVFR
MVFR
IFR
IFR
LIFR
LIFR
Unknown
Unavailable
-
-

CheckWX.com is intended as a tool to help pilots better visualize weather data. It is not intended as a substitute for an official weather briefing obtained from a Flight Service Station. CheckWX.com does not meet the FAA requirements for an official pre-flight weather briefing. Therefore, it's important that pilots still call and obtain an official FSS pre-flight weather briefing.

© 2007-2016 CheckWX.com
03:41:14 UTC